• In Uzbekistan
  • List of Countries
  • For 7 days
  • Water Temperature
  • Satellite Maps
  • Weather Map
  • Weather Widgets
  • user-avatar
    Login

    Hourly Weather Sherpur

    Today, 17 July, Wednesday

    Time Temperature Precipitation Wind Pressure Humidity
    00:00 +23°C° 0 mm 1 mps 608 mmHg 57%
    01:00 +22°C° 0 mm 1 mps 607 mmHg 60%
    02:00 +22°C° 0 mm 1 mps 607 mmHg 63%
    03:00 +21°C° 0 mm 1 mps 607 mmHg 63%
    04:00 +20°C° 0 mm 1 mps 607 mmHg 63%
    05:00 +20°C° 0 mm 1 mps 606 mmHg 64%
    06:00 +22°C° 0 mm 1 mps 607 mmHg 53%
    07:00 +24°C° 0 mm 1 mps 608 mmHg 42%
    08:00 +25°C° 0 mm 0 mps 609 mmHg 31%
    09:00 +28°C° 0 mm 1 mps 610 mmHg 25%
    10:00 +30°C° 0 mm 1 mps 610 mmHg 20%
    11:00 +32°C° 0 mm 1 mps 611 mmHg 14%
    12:00 +34°C° 0 mm 2 mps 611 mmHg 13%
    13:00 +35°C° 0 mm 2 mps 611 mmHg 12%
    14:00 +36°C° 0 mm 2 mps 611 mmHg 10%
    15:00 +36°C° 0 mm 3 mps 611 mmHg 11%
    16:00 +36°C° 0 mm 4 mps 610 mmHg 12%
    17:00 +36°C° 0 mm 4 mps 610 mmHg 12%
    18:00 +33°C° 0 mm 4 mps 610 mmHg 22%
    19:00 +30°C° 0 mm 3 mps 609 mmHg 32%
    20:00 +27°C° 0 mm 3 mps 608 mmHg 42%
    21:00 +26°C° 0 mm 2 mps 608 mmHg 47%
    22:00 +25°C° 0 mm 2 mps 608 mmHg 52%
    23:00 +24°C° 0 mm 2 mps 608 mmHg 57%

    Tomorrow, 18 July, Thursday

    Time Temperature Precipitation Wind Pressure Humidity
    00:00 +23°C° 0 mm 1 mps 608 mmHg 61%
    01:00 +22°C° 0 mm 1 mps 607 mmHg 64%
    02:00 +21°C° 0 mm 1 mps 607 mmHg 68%
    03:00 +21°C° 0 mm 1 mps 607 mmHg 68%
    04:00 +20°C° 0 mm 1 mps 606 mmHg 67%
    05:00 +20°C° 0 mm 1 mps 606 mmHg 67%
    06:00 +22°C° 0 mm 1 mps 607 mmHg 56%
    07:00 +24°C° 0 mm 1 mps 608 mmHg 45%
    08:00 +24°C° 0 mm 0 mps 609 mmHg 34%
    09:00 +28°C° 0 mm 1 mps 609 mmHg 27%
    10:00 +30°C° 0 mm 1 mps 610 mmHg 20%
    11:00 +31°C° 0 mm 1 mps 610 mmHg 14%
    12:00 +34°C° 0 mm 2 mps 610 mmHg 12%
    13:00 +35°C° 0 mm 2 mps 611 mmHg 11%
    14:00 +36°C° 0 mm 3 mps 611 mmHg 10%
    15:00 +36°C° 0 mm 3 mps 611 mmHg 10%
    16:00 +36°C° 0 mm 4 mps 610 mmHg 10%
    17:00 +37°C° 0 mm 5 mps 610 mmHg 10%
    18:00 +34°C° 0 mm 4 mps 610 mmHg 16%
    19:00 +32°C° 0 mm 4 mps 609 mmHg 23%
    20:00 +28°C° 0 mm 3 mps 609 mmHg 29%
    21:00 +27°C° 0 mm 3 mps 609 mmHg 35%
    22:00 +26°C° 0 mm 2 mps 609 mmHg 40%
    23:00 +25°C° 0 mm 2 mps 608 mmHg 45%

    Day after tomorrow, 19 July, Friday

    Time Temperature Precipitation Wind Pressure Humidity
    00:00 +24°C° 0 mm 1 mps 608 mmHg 50%
    01:00 +23°C° 0 mm 1 mps 607 mmHg 54%
    02:00 +20°C° 0 mm 0 mps 607 mmHg 59%
    03:00 +19°C° 0 mm 0 mps 607 mmHg 61%
    04:00 +19°C° 0 mm 0 mps 607 mmHg 62%
    05:00 +18°C° 0 mm 0 mps 607 mmHg 64%
    06:00 +20°C° 0 mm 0 mps 608 mmHg 55%
    07:00 +22°C° 0 mm 0 mps 608 mmHg 46%
    08:00 +25°C° 0 mm 0 mps 609 mmHg 37%
    09:00 +28°C° 0 mm 1 mps 610 mmHg 30%
    10:00 +30°C° 0 mm 1 mps 610 mmHg 23%
    11:00 +32°C° 0 mm 1 mps 611 mmHg 15%
    12:00 +34°C° 0 mm 2 mps 611 mmHg 14%
    13:00 +35°C° 0 mm 2 mps 611 mmHg 12%
    14:00 +36°C° 0 mm 2 mps 611 mmHg 10%
    15:00 +37°C° 0 mm 3 mps 611 mmHg 10%
    16:00 +37°C° 0 mm 3 mps 611 mmHg 10%
    17:00 +37°C° 0 mm 4 mps 611 mmHg 10%
    18:00 +35°C° 0 mm 3 mps 610 mmHg 17%
    19:00 +31°C° 0 mm 3 mps 610 mmHg 23%
    20:00 +29°C° 0 mm 3 mps 610 mmHg 30%
    21:00 +28°C° 0 mm 3 mps 610 mmHg 37%
    22:00 +26°C° 0 mm 2 mps 609 mmHg 45%
    23:00 +25°C° 0 mm 2 mps 609 mmHg 53%

    20 July, Saturday

    Time Temperature Precipitation Wind Pressure Humidity
    00:00 +24°C° 0 mm 1 mps 609 mmHg 55%
    01:00 +24°C° 0 mm 1 mps 609 mmHg 57%
    02:00 +23°C° 0 mm 1 mps 608 mmHg 59%
    03:00 +22°C° 0 mm 1 mps 608 mmHg 61%
    04:00 +22°C° 0 mm 1 mps 608 mmHg 63%
    05:00 +21°C° 0 mm 1 mps 607 mmHg 65%
    06:00 +21°C° 0 mm 0 mps 608 mmHg 55%
    07:00 +23°C° 0 mm 0 mps 610 mmHg 46%
    08:00 +25°C° 0 mm 0 mps 611 mmHg 36%
    09:00 +29°C° 0 mm 1 mps 611 mmHg 29%
    10:00 +31°C° 0 mm 1 mps 612 mmHg 21%
    11:00 +33°C° 0 mm 1 mps 612 mmHg 13%
    12:00 +35°C° 0 mm 2 mps 612 mmHg 11%
    13:00 +37°C° 0 mm 3 mps 612 mmHg 10%
    14:00 +38°C° 0 mm 4 mps 612 mmHg 8%
    15:00 +39°C° 0 mm 5 mps 612 mmHg 8%
    16:00 +39°C° 0 mm 6 mps 612 mmHg 8%
    17:00 +39°C° 0 mm 7 mps 612 mmHg 8%
    18:00 +35°C° 0 mm 6 mps 611 mmHg 10%
    19:00 +33°C° 0 mm 5 mps 611 mmHg 12%
    20:00 +30°C° 0 mm 4 mps 610 mmHg 14%
    21:00 +28°C° 0 mm 3 mps 610 mmHg 16%
    22:00 +27°C° 0 mm 3 mps 610 mmHg 19%
    23:00 +25°C° 0 mm 2 mps 609 mmHg 21%

    21 July, Sunday

    Time Temperature Precipitation Wind Pressure Humidity
    00:00 +24°C° 0 mm 2 mps 609 mmHg 21%
    01:00 +24°C° 0 mm 2 mps 608 mmHg 22%
    02:00 +23°C° 0 mm 1 mps 608 mmHg 22%
    03:00 +22°C° 0 mm 1 mps 608 mmHg 22%
    04:00 +22°C° 0 mm 1 mps 607 mmHg 22%
    05:00 +21°C° 0 mm 1 mps 607 mmHg 23%
    06:00 +24°C° 0 mm 1 mps 608 mmHg 20%
    07:00 +26°C° 0 mm 1 mps 609 mmHg 17%
    08:00 +29°C° 0 mm 1 mps 610 mmHg 14%
    09:00 +30°C° 0 mm 2 mps 611 mmHg 12%
    10:00 +32°C° 0 mm 2 mps 611 mmHg 11%
    11:00 +35°C° 0 mm 3 mps 612 mmHg 10%
    12:00 +36°C° 0 mm 4 mps 612 mmHg 9%
    13:00 +37°C° 0 mm 5 mps 612 mmHg 8%
    14:00 +40°C° 0 mm 6 mps 612 mmHg 7%
    15:00 +39°C° 0 mm 7 mps 611 mmHg 7%
    16:00 +39°C° 0 mm 8 mps 611 mmHg 8%
    17:00 +38°C° 0 mm 9 mps 611 mmHg 8%
    18:00 +35°C° 0 mm 7 mps 610 mmHg 9%
    19:00 +33°C° 0 mm 6 mps 610 mmHg 11%
    20:00 +29°C° 0 mm 4 mps 609 mmHg 12%
    21:00 +28°C° 0 mm 3 mps 609 mmHg 14%
    22:00 +27°C° 0 mm 3 mps 609 mmHg 16%
    23:00 +25°C° 0 mm 2 mps 608 mmHg 17%

    22 July, Monday

    Time Temperature Precipitation Wind Pressure Humidity
    00:00 +25°C° 0 mm 2 mps 608 mmHg 18%
    01:00 +24°C° 0 mm 2 mps 608 mmHg 19%
    02:00 +23°C° 0 mm 2 mps 607 mmHg 20%
    03:00 +23°C° 0 mm 2 mps 607 mmHg 20%
    04:00 +21°C° 0 mm 2 mps 607 mmHg 21%
    05:00 +21°C° 0 mm 2 mps 607 mmHg 22%
    06:00 +24°C° 0 mm 2 mps 608 mmHg 20%
    07:00 +27°C° 0 mm 2 mps 609 mmHg 18%
    08:00 +29°C° 0 mm 2 mps 610 mmHg 16%
    09:00 +31°C° 0 mm 3 mps 611 mmHg 14%
    10:00 +34°C° 0 mm 4 mps 611 mmHg 13%
    11:00 +35°C° 0 mm 5 mps 611 mmHg 11%
    12:00 +36°C° 0 mm 6 mps 611 mmHg 11%
    13:00 +38°C° 0 mm 6 mps 611 mmHg 11%
    14:00 +38°C° 0 mm 7 mps 611 mmHg 11%
    15:00 +38°C° 0 mm 7 mps 610 mmHg 12%
    16:00 +36°C° 0 mm 7 mps 610 mmHg 13%
    17:00 +36°C° 0 mm 7 mps 609 mmHg 14%
    18:00 +34°C° 0 mm 6 mps 609 mmHg 18%
    19:00 +30°C° 0 mm 4 mps 608 mmHg 22%
    20:00 +28°C° 0 mm 3 mps 607 mmHg 25%
    21:00 +27°C° 0 mm 3 mps 607 mmHg 28%
    22:00 +25°C° 0 mm 2 mps 607 mmHg 30%
    23:00 +24°C° 0 mm 2 mps 607 mmHg 32%
    Show more